Miscellaneous Local Product
Issued by NWS North Platte, NE

Home | Current Version | Previous Version | Text Only | Print | Product List | Glossary Off
Versions: 1 2 3 4 5 6 7 8 9 10 11 12 13 14 15 16 17 18 19 20 21 22 23 24 25 26 27 28 29 30 31 32 33 34 35 36 37 38 39 40 41 42 43 44 45 46 47 48 49 50

000
AXUS43 KLBF 291210
MISLBF


WESTERN AND NORTH CENTRAL NEBRASKA HOURLY WEATHER ROUNDUP
NATIONAL WEATHER SERVICE NORTH PLATTE NE
700 AM CDT SAT APR 29 2017

NOTE: "FAIR" INDICATES FEW OR NO CLOUDS BELOW 12,000 FEET WITH NO
SIGNIFICANT WEATHER AND/OR OBSTRUCTIONS TO VISIBILITY.

NOTE: STATIONS NOT REPORTING VARIABLES SUCH AS SKY/WEATHER OR
PRESSURE ARE PROVIDED BY RAWS AND APRS NETWORKS AND ARE NOT UNDER
NATIONAL WEATHER SERVICE QUALITY CONTROL.

...OBSERVATIONS IN AND NEAR THE EASTERN PANHANDLE OF NEBRASKA...

CITY           SKY/WX    TMP DP  RH WIND       PRES   REMARKS
PINE RIDGE     CLOUDY    32  29  88 S3        30.22R
CHADRON        CLOUDY    31  27  85 CALM      30.22R
ALLIANCE       CLOUDY    32  27  81 N8        30.16R WCI  25
SIDNEY         CLOUDY    33  29  85 N12       30.12S WCI  24
CRESCENT LAKE    N/A     33  29  84 N6          N/A  WCI  27
$$

...OBSERVATIONS IN NORTHERN NEBRASKA AND FAR SOUTHERN SOUTH DAKOTA...

CITY           SKY/WX    TMP DP  RH WIND       PRES   REMARKS
WINNER         CLOUDY    34  23  64 CALM      30.23R
VALENTINE      CLOUDY    39  20  46 NE8       30.21R WCI  33
THEDFORD       CLOUDY    38  26  62 NE10      30.17R WCI  31
AINSWORTH      CLOUDY    37  26  66 NE6       30.20R WCI  32
O`NEILL        CLOUDY    38  25  59 N8        30.19R WCI  32
ORD            CLOUDY    39  27  62 NE10      30.16R WCI  32
BROKEN BOW     CLOUDY    38  28  67 NE15      30.12R WCI  29
VALENTINE NWR    N/A     37  24  59 NE7         N/A  WCI  31
BUTTE            N/A     35  25  66 CALM        N/A
CHAMBERS         N/A     37  24  60 N3          N/A
EWING            N/A     37  30  75 NE5         N/A  WCI  33
$$

...OBSERVATIONS IN SOUTHWEST NEBRASKA AND FAR NORTHEAST COLORADO...

CITY           SKY/WX    TMP DP  RH WIND       PRES   REMARKS
HOLYOKE        CLOUDY    37  32  81 N10       30.12S WCI  30
IMPERIAL       CLOUDY    37  29  72 NE13      30.12R WCI  29
OGALLALA       CLOUDY    38  30  71 NE12      30.14R WCI  31
NORTH PLATTE   CLOUDY    38  29  70 NE13      30.13R WCI  30
MCCOOK         LGT RAIN  38  34  85 NE23G29   30.13R FOG     WCI  27
LEXINGTON      CLOUDY    40  31  71 NE13G18   30.12S WCI  32
STAPLETON        N/A     35  29  78 CALM        N/A
GOTHENBURG       N/A     39  30  71 N7          N/A  WCI  34
CALLAWAY         N/A     36  30  79 NE12        N/A  WCI  28
$$

...OBSERVATIONS IN CENTRAL LINCOLN COUNTY AREA...

CITY           SKY/WX    TMP DP  RH WIND       PRES   REMARKS
N.P. AIRPORT   CLOUDY    38  29  70 NE13      30.13R WCI  30
N.P. DOWNTOWN    N/A     38  30  73 NE8         N/A  WCI  32
N.P. SOUTHEAST   N/A     37  29  73 NE3         N/A
N.P. HILLCREST   N/A     38  30  73 NE15        N/A  WCI  29
$$

...SOME OBSERVATIONS FROM AROUND THE REGION...

CITY           SKY/WX    TMP DP  RH WIND       PRES   REMARKS
DENVER         LGT SNOW  29  27  92 N14       30.10R FOG     WCI  18
LIMON          CLOUDY    28  26  92 N20G28    30.05R WCI  15
ASPEN          CLOUDY    21  14  74 S5        29.91R WCI  15
LARAMIE        FLURRIES  23  19  85 E13       30.07S WCI  11
CASPER         FOG       24  22  91 NW3       30.19R VSB 1/2
CHEYENNE       CLOUDY    26  24  92 N10       30.12R WCI  16
SCOTTSBLUFF    CLOUDY    32  27  81 N8        30.17R WCI  25
GRAND ISLAND   CLOUDY    39  36  89 NE13      30.12R WCI  31
OMAHA          LGT RAIN  43  34  70 N9        30.12R
SIOUX FALLS    MOCLDY    36  27  69 NE7       30.20R WCI  30
PIERRE         PTCLDY    32  21  64 CALM      30.24R
RAPID CITY     CLEAR     27  21  78 NW8       30.21F WCI  19
BISMARCK       PTCLDY    25  22  88 CALM      30.26R
KANSAS CITY    LGT RAIN  46  45  96 NE18      29.90S FOG
HILL CITY      RAIN      37  36  96 NE15      30.06R FOG     WCI  28
WICHITA        TSTM      44  43  96 N24G32    29.83S
DODGE CITY     LGT SNOW  34  33  96 N22       29.92F FOG     WCI  22
OKLAHOMA CITY  TSTM      49  48  97 N36G46    29.65S
DALLAS         CLOUDY    78  72  81 S23G32    29.53S
AMARILLO       FLURRIES  38  37  97 N25G33    29.80R WCI  27
$$




USA.gov is the U.S. government's official web portal to all federal, state and local government web resources and services.